Home   Weather   Emmendingen   Past weeks

Flag for Germany Past Weather in Emmendingen, Baden-Württemberg, Germany — Yesterday and Last 2 Weeks

Now
48 °F

Passing clouds.


Feels Like: 45 °F
Forecast: 31 / 65 °F
Wind: 8 mph from Northeast

Location: Lahr - CAN-AFB

Current Time: Apr 23, 2017 at 12:00:59 pm

Latest Report: Apr 23, 2017 at 11:20 am


Visibility: N/A

Pressure: 30.27 "Hg

Humidity: 50%

Dew Point: 30 °F

Location of EmmendingenLocation

Past Weather in Emmendingen — Graph

°F

Emmendingen Temperature Yesterday

Maximum temperature yesterday: 57 °F (at 2:50 pm)
Minimum temperature yesterday: 43 °F (at 9:20 am)
Average temperature yesterday: 52 °F

High & Low Weather Summary for the Past Weeks

 TemperatureHumidityPressure
High77 °F (Apr 10, 2:20 pm)100% (Apr 9, 8:20 am)30.60 "Hg (Apr 9, 8:20 am)
Low30 °F (Apr 20, 7:50 am)21% (Apr 21, 2:50 pm)29.95 "Hg (Apr 12, 7:20 pm)
Average54 °F56%30.25 "Hg
* Reported Apr 8 10:20 am — Apr 23 10:50 am, Emmendingen, Weather by CustomWeather, © 2017

Note: Actual official high and low records may vary slightly from our data, if they occured in-between our weather recording intervals... More about our weather records

Advertising

Emmendingen Weather History for the Previous 24 Hours

Scroll right to see more
 ConditionsComfort  
Time TempWeatherWind HumidityBarometerVisibility
10:50 am
Sun, Apr 23
48 °FPassing clouds.9 mph54%30.30 "HgN/A
10:20 am46 °FPassing clouds.9 mph57%30.30 "HgN/A
9:50 am46 °FPassing clouds.10 mph57%30.30 "HgN/A
9:20 am45 °FSunny.12 mph71%30.30 "Hg10 mi
8:50 am45 °FPassing clouds.5 mph87%30.30 "HgN/A
8:20 am43 °FSunny.2 mph100%30.30 "Hg10 mi
5:50 pm
Sat, Apr 22
55 °FPartly sunny.13 mph55%30.21 "HgN/A
5:20 pm55 °FPartly sunny.6 mph59%30.21 "HgN/A
4:20 pm55 °FPartly sunny.9 mph55%30.21 "HgN/A
3:50 pm55 °FPartly sunny.9 mph55%30.21 "HgN/A
3:20 pm55 °FPartly sunny.10 mph55%30.24 "HgN/A
2:50 pm57 °FPartly sunny.13 mph51%30.24 "HgN/A
2:20 pm55 °FPartly sunny.14 mph55%30.24 "HgN/A
1:50 pm55 °FPartly sunny.13 mph55%30.24 "HgN/A
12:50 pm54 °FSunny.8 mph54%30.27 "Hg10 mi
12:20 pm52 °FSunny.9 mph58%30.27 "Hg10 mi
Weather by CustomWeather, © 2017

See weather overviewHow to use our weather pages